TimeEST,TemperatureF,Dew PointF,Humidity,Sea Level PressureIn,VisibilityMPH,Wind Direction,Wind SpeedMPH,Gust SpeedMPH,PrecipitationIn,Events,Conditions,WindDirDegrees,DateUTC
12:19 AM,42.8,42.8,100,29.79,10.0,SSW,8.1,-,0.00,Rain,Light Rain,210,2012-12-03 05:19:00
12:30 AM,42.8,42.8,100,29.79,8.0,SSW,4.6,-,0.00,Rain,Light Rain,210,2012-12-03 05:30:00
12:54 AM,43.0,41.0,93,29.82,8.0,SSW,6.9,-,0.00,Rain,Light Rain,210,2012-12-03 05:54:00
1:54 AM,42.1,41.0,96,29.83,10.0,SSW,5.8,-,0.00,,Overcast,210,2012-12-03 06:54:00
2:02 AM,42.8,41.0,93,29.80,10.0,SSW,4.6,-,N/A,,Overcast,210,2012-12-03 07:02:00
2:54 AM,42.1,39.9,92,29.83,10.0,SSW,4.6,-,N/A,,Overcast,210,2012-12-03 07:54:00
3:52 AM,42.8,39.2,87,29.81,10.0,SSW,4.6,-,0.00,,Overcast,210,2012-12-03 08:52:00
3:54 AM,42.1,39.9,92,29.84,10.0,SSW,3.5,-,0.00,,Overcast,210,2012-12-03 08:54:00
4:17 AM,41.0,39.2,93,29.82,10.0,SSW,3.5,-,N/A,,Overcast,200,2012-12-03 09:17:00
4:54 AM,41.0,39.9,96,29.85,10.0,Calm,Calm,-,0.00,Rain,Light Rain,0,2012-12-03 09:54:00
5:11 AM,41.0,39.2,93,29.83,9.0,Calm,Calm,-,0.00,,Overcast,0,2012-12-03 10:11:00
5:54 AM,41.0,39.9,96,29.87,3.0,SW,3.5,-,0.01,Rain,Light Rain,230,2012-12-03 10:54:00
5:56 AM,41.0,39.2,93,29.85,2.5,SW,3.5,-,0.00,Rain,Light Rain,230,2012-12-03 10:56:00
6:05 AM,41.0,39.2,93,29.85,1.5,WSW,4.6,-,0.00,,Overcast,240,2012-12-03 11:05:00
6:12 AM,41.0,39.2,93,29.85,2.0,WSW,4.6,-,0.00,Rain,Light Rain,250,2012-12-03 11:12:00
6:16 AM,41.0,39.2,93,29.86,3.0,West,3.5,-,0.00,Rain,Light Rain,260,2012-12-03 11:16:00
6:40 AM,41.0,39.2,93,29.87,6.0,Calm,Calm,-,0.02,Rain,Light Rain,0,2012-12-03 11:40:00
6:54 AM,41.0,39.0,93,29.90,7.0,Calm,Calm,-,0.02,Rain,Light Rain,0,2012-12-03 11:54:00
7:40 AM,39.2,37.4,93,29.91,10.0,NW,4.6,-,0.00,,Overcast,320,2012-12-03 12:40:00
7:54 AM,39.9,37.0,89,29.94,10.0,NNW,8.1,-,0.01,Rain,Light Rain,330,2012-12-03 12:54:00
8:12 AM,39.2,37.4,93,29.93,10.0,NW,6.9,-,0.00,Rain,Light Rain,310,2012-12-03 13:12:00
8:54 AM,39.0,36.0,89,29.96,10.0,NW,9.2,-,0.00,,Overcast,320,2012-12-03 13:54:00
9:54 AM,37.9,34.0,86,30.01,10.0,NW,12.7,17.3,N/A,,Overcast,310,2012-12-03 14:54:00
10:42 AM,39.2,33.8,81,30.01,10.0,NW,12.7,20.7,N/A,,Overcast,320,2012-12-03 15:42:00
10:54 AM,39.0,34.0,82,30.04,10.0,NW,10.4,19.6,N/A,,Overcast,320,2012-12-03 15:54:00
11:24 AM,37.4,33.8,87,30.01,10.0,NW,13.8,19.6,N/A,,Overcast,320,2012-12-03 16:24:00
11:37 AM,37.4,33.8,87,30.01,10.0,NNW,18.4,23.0,N/A,,Overcast,330,2012-12-03 16:37:00
11:54 AM,37.9,33.1,83,30.05,10.0,NNW,12.7,-,N/A,,Overcast,330,2012-12-03 16:54:00
12:54 PM,37.9,33.1,83,30.07,10.0,NW,13.8,18.4,N/A,,Overcast,320,2012-12-03 17:54:00
1:54 PM,37.9,32.0,79,30.09,10.0,NNW,10.4,-,N/A,,Overcast,330,2012-12-03 18:54:00
2:32 PM,37.4,30.2,75,30.07,10.0,NW,12.7,-,N/A,,Scattered Clouds,320,2012-12-03 19:32:00
2:54 PM,37.0,30.9,79,30.12,10.0,NW,12.7,-,N/A,,Partly Cloudy,310,2012-12-03 19:54:00
3:54 PM,36.0,28.9,76,30.14,10.0,WNW,18.4,25.3,N/A,,Clear,300,2012-12-03 20:54:00
4:31 PM,35.6,30.2,81,30.15,10.0,NW,6.9,-,N/A,,Mostly Cloudy,310,2012-12-03 21:31:00
4:54 PM,36.0,30.0,79,30.20,10.0,NW,8.1,-,N/A,,Overcast,310,2012-12-03 21:54:00
5:54 PM,35.1,28.9,78,30.23,10.0,NW,4.6,-,N/A,,Overcast,310,2012-12-03 22:54:00
6:37 PM,33.8,28.4,81,30.20,10.0,NW,6.9,-,N/A,,Scattered Clouds,310,2012-12-03 23:37:00
6:54 PM,34.0,28.0,79,30.25,10.0,NW,6.9,-,N/A,,Clear,320,2012-12-03 23:54:00
7:54 PM,32.0,28.0,85,30.25,10.0,Calm,Calm,-,N/A,,Clear,0,2012-12-04 00:54:00
8:54 PM,32.0,28.0,85,30.26,10.0,NW,5.8,-,N/A,,Clear,320,2012-12-04 01:54:00
9:54 PM,32.0,28.0,85,30.25,10.0,NNW,5.8,-,N/A,,Clear,330,2012-12-04 02:54:00
10:54 PM,30.9,27.0,85,30.25,10.0,North,3.5,-,N/A,,Clear,360,2012-12-04 03:54:00
11:54 PM,30.0,26.1,85,30.26,10.0,Calm,Calm,-,N/A,,Clear,0,2012-12-04 04:54:00